User: anonymous   Login
Location: Holmes Observatory
(37.1039°N, 122.0513°W)
Time: 04:21:37
(UTC-08:00)
Language:

Cosmos 921 Rocket - Orbit

View from above orbital plane
View from above orbital plane
View from above satellite
View from above satellite

Ground track
Ground track

The orbit data is extracted from the following two-line orbital elements,

1 10096U 77055B   15026.77517837  .00000380  00000-0  42913-4 0  6495
2 10096 075.8352 108.7930 0043852 269.2522 230.4105 14.88096140 32467
Epoch (UTC): 26 January 2015 18:36:15
Eccentricity: 0.0043852
inclination: 75.8352°
perigee height: 573 km
apogee height: 634 km
right ascension of ascending node: 108.7930°
argument of perigee: 269.2522°
revolutions per day: 14.88096140
mean anomaly at epoch: 230.4105°
orbit number at epoch: 3246

The dashed part of the orbit path shows where the satellite is in the earth's shadow,  

DLR